Flag for U.S.A. Weather past 2 weeks in Victoria, Texas, U.S.A.

Now
48 °F

Clear.


Feels Like: 45 °F
Forecast: 40 / 69 °F
Wind: 6 mph from Southwest

Location: Victoria Regional Airport

Current Time: Jan 24, 2015 at 10:43:58 PM

Latest Report: Jan 24, 2015 at 9:51 PM


Visibility: 10 mi

Pressure: 30.12 "Hg

Humidity: 68%

Dew point: 38 °F

Location of VictoriaLocation

Historic Weather in Victoria — Graph

°F

Victoria temperature yesterday

Maximum temperature yesterday: 48 °F (at 3:51 PM)
Minimum temperature yesterday: 40 °F (at 8:51 PM)
Average temperature yesterday: 44 °F

Past Weeks' High & Low Weather Summary

 TemperatureHumidityPressure
High79 °F (Jan 20, 3:51 PM)100% (Jan 20, 12:51 AM)30.52 "Hg (Jan 20, 12:51 AM)
Low37 °F (Jan 9, 8:51 PM)28% (Jan 18, 1:51 PM)29.88 "Hg (Jan 20, 3:51 PM)
Average50 °F79%30.21 "Hg
* Reported Jan 9 8:51 PM — Jan 24 8:51 PM, Victoria, Weather by CustomWeather, © 2014

Note: Actual official high and low records may vary slightly from our data, if they occured in-between our weather recording intervals... More about our weather records

Advertising

Victoria weather history for previous 24 hours

 ConditionsComfort  
Time TempWeatherWind HumidityBarometerVisibility
8:51 PM
Jan 24
49 °FClear.7 mph69%30.13 "Hg10 mi
7:51 PM49 °FClear.3 mph71%30.13 "Hg10 mi
6:51 PM54 °FClear.5 mph55%30.14 "Hg10 mi
5:51 PM59 °FSunny.6 mph46%30.13 "Hg10 mi
4:51 PM63 °FSunny.8 mph38%30.13 "Hg10 mi
3:51 PM63 °FSunny.13 mph40%30.14 "Hg10 mi
2:51 PM63 °FSunny.10 mph40%30.16 "Hg10 mi
1:51 PM61 °FSunny.14 mph44%30.18 "Hg10 mi
12:51 PM60 °FSunny.10 mph47%30.22 "Hg10 mi
11:51 AM58 °FSunny.12 mph51%30.26 "Hg10 mi
10:51 AM55 °FSunny.16 mph55%30.28 "Hg10 mi
9:51 AM50 °FSunny.10 mph68%30.30 "Hg10 mi
8:51 AM45 °FSunny.12 mph74%30.30 "Hg10 mi
7:51 AM40 °FSunny.8 mph83%30.29 "Hg10 mi
6:51 AM39 °FClear.7 mph82%30.28 "Hg10 mi
5:51 AM38 °FClear.8 mph86%30.27 "Hg10 mi
4:51 AM39 °FClear.8 mph86%30.27 "Hg10 mi
3:51 AM39 °FClear.7 mph86%30.27 "Hg10 mi
2:51 AM37 °FClear.7 mph89%30.28 "Hg10 mi
1:51 AM38 °FClear.7 mph90%30.28 "Hg10 mi
12:51 AM39 °FClear.7 mph89%30.29 "Hg10 mi
11:51 PM
Jan 23
43 °FClear.10 mph79%30.31 "Hg10 mi
10:51 PM42 °FClear.9 mph82%30.31 "Hg10 mi
Weather by CustomWeather, © 2014

See weather overviewHow to use our weather pages